Regional Weather Roundup
Issued by NWS New Orleans/Baton Rouge, LA

Home | Current Version | Previous Version | Text Only | Print | Product List | Glossary On
Versions: 1 2 3 4 5 6 7 8 9 10 11 12 13 14 15 16 17 18 19 20 21 22 23 24 25 26
000
ASUS44 KLIX 120813
RWRLIX
NEW ORLEANS REGIONAL WEATHER ROUNDUP
NATIONAL WEATHER SERVICE NEW ORLEANS LA
200 AM CST TUE DEC 12 2017

NOTE: "FAIR" INDICATES FEW OR NO CLOUDS BELOW 12,000 FEET WITH NO
      SIGNIFICANT WEATHER AND/OR OBSTRUCTIONS TO VISIBILITY.
      SKY/WX - SKY CONDITION AND SIGNIFICANT WEATHER.
      TMP - AIR TEMPERATURE.     DP    - DEWPOINT TEMPERATURE.
      RH  - RELATIVE HUMIDITY.   PRES  - PRESSURE.
      HI  - HEAT INDEX.          WCI   - WIND CHILL INDEX.

*  THESE STATIONS ARE NOT NWS OR FAA STATIONS AND ARE NOT UNDER
   NWS QUALITY CONTROL.

LAZ038-040-048-061>063-065>067-069-120900-
SOUTHEAST LOUISIANA

CITY           SKY/WX    TMP DP  RH WIND       PRES   REMARKS
N.O. INTL ARPT CLEAR     51  48  89 SW8       30.10S
N.O. LAKEFRONT CLEAR     55  47  74 SW15      30.09F
N.O. DOWNTOWN*   N/A     51  46  83 S6        30.11F
RESERVE*         N/A     49  46  87 W6        30.10F
SLIDELL        CLEAR     51  47  86 SW5       30.07F
BATON ROUGE    CLEAR     47  42  83 W6        30.09S
BOOTHVILLE     CLEAR     59  52  77 W10       30.11F
BELLE CHASSE   CLEAR     50  49  96 SW7       30.10F
BOGALUSA*      NOT AVBL
GALLIANO*      SUNNY     53  47  81 W8        30.12S
NEW ROADS*       N/A     39  38  93 CALM      30.10R
GONZALES*        N/A     50  46  84 SW3       30.09S
HAMMOND*       PTCLDY    46  43  87 S5        30.08S
HOUMA*         CLEAR     50  48  92 W3        30.12S
PORT FOURCHON* SUNNY     57  52  82 W9        30.13S

$$

MSZ070-080>082-120900-
SOUTHERN MISSISSIPPI

CITY           SKY/WX    TMP DP  RH WIND       PRES   REMARKS
MCCOMB         CLEAR     48  41  76 W3        30.05S
GULFPORT       CLEAR     51  47  86 W6        30.06F
BILOXI         CLEAR     50  46  84 W6        30.05F
PASCAGOULA     CLEAR     47  43  86 SW3       30.06F

$$

COASTAL OBSERVATIONS
LAKE AND NEARSHORE STATIONS

STATION/POSITION TIME  TEMP    WIND        PRES    WAVE
                       AIR SEA DIR/SP/G            HT/PER
                 (UTC) (F)     (DEG/KT/KT) (MB)    (FT/S)
PASCAGOULA       0748   53     270/ 11/ 15 1017.4
WAVELAND YACHT   0748   52 51  250/  7/ 10 1018.1
GRAND ISLE       0748   58 64  280/ 12/ 15 1019.7
SOUTHWEST PASS   0748   63 57  270/ 23/ 24 1020.1
NEW CANAL        0748   55 56  230/  9/ 14 1018.7
SHELL BEACH      0748   50 54  230/ 10/ 12 1019.1

OFFSHORE STATIONS

STATION/POSITION TIME  TEMP    WIND        PRES    WAVE
                       AIR SEA DIR/SP/G            HT/PER
                 (UTC) (F)     (DEG/KT/KT) (MB)    (FT/S)
64 S DAUPHIN ISL 0750   66 74  260/ 19/ 23 1019.0    4/ 5

$$





USA.gov is the U.S. government's official web portal to all federal, state and local government web resources and services.